QPF
0.01 0.01 0.01 0.01 0.02 0.02 0.01 0.01 0.02 0.02 0.03 0.03 0.02 0.03 0.04 0.03 0.04 0.04 0.05 0.05 0.04 0.05 0.04 0.03 0.01 0.01 0.01 0.02 0.02 0.05 0.09 0.06 0.04 0.04 0.03 0.02 0.02 0.02
0.00 0.00 0.01 0.02 0.02 0.02 0.01 0.01 0.02 0.03 0.03 0.03 0.02 0.03 0.04 0.03 0.02 0.02 0.03 0.04 0.05 0.04 0.03 0.03 0.02 0.01 0.01 0.01 0.02 0.03 0.04 0.02 0.02 0.02 0.02 0.02 0.03 0.03
0.01 0.01 0.01 0.01 0.01 0.01 0.02 0.03 0.03 0.03 0.03 0.02 0.02 0.03 0.04 0.03 0.02 0.02 0.02 0.02 0.03 0.02 0.02 0.02 0.02 0.01 0.01 0.01 0.01 0.01 0.01 0.01 0.01 0.02 0.01 0.01 0.01 0.01
0.00 0.01 0.02 0.02 0.01 0.02 0.03 0.03 0.04 0.04 0.03 0.03 0.03 0.03 0.04 0.04 0.03 0.03 0.02 0.02 0.02 0.03 0.03 0.03 0.02 0.02 0.01 0.01 0.01 0.01 0.01 0.01 0.01 0.01 0.01 0.01 0.01 0.01
0.00 0.01 0.01 0.03 0.03 0.03 0.03 0.03 0.04 0.04 0.04 0.05 0.03 0.03 0.04 0.05 0.04 0.03 0.03 0.03 0.04 0.04 0.04 0.04 0.03 0.02 0.01 0.01 0.01 0.01 0.00 0.00 0.00 0.00 0.00 0.00 0.00 0.00
0.00 0.01 0.02 0.04 0.08 0.06 0.03 0.02 0.03 0.04 0.05 0.05 0.04 0.03 0.04 0.06 0.05 0.04 0.04 0.03 0.04 0.04 0.04 0.04 0.04 0.04 0.02 0.01 0.01 0.00 0.00 0.00 0.00 0.00 0.00 0.00 0.00 0.00
0.01 0.01 0.02 0.04 0.09 0.08 0.05 0.04 0.02 0.02 0.02 0.02 0.03 0.02 0.03 0.04 0.04 0.03 0.03 0.03 0.03 0.04 0.04 0.04 0.04 0.04 0.03 0.02 0.01 0.01 0.01 0.01 0.01 0.01 0.01 0.01 0.00 0.00
0.01 0.01 0.02 0.02 0.04 0.04 0.03 0.02 0.01 0.01 0.01 0.01 0.01 0.02 0.02 0.02 0.02 0.03 0.03 0.02 0.02 0.03 0.03 0.02 0.02 0.03 0.02 0.02 0.01 0.01 0.01 0.01 0.01 0.01 0.02 0.02 0.01 0.01
0.01 0.01 0.01 0.01 0.01 0.01 0.01 0.01 0.01 0.01 0.01 0.00 0.00 0.00 0.01 0.01 0.01 0.02 0.02 0.01 0.01 0.02 0.02 0.02 0.02 0.01 0.01 0.01 0.01 0.02 0.02 0.02 0.02 0.02 0.02 0.02 0.02 0.02
0.03 0.02 0.02 0.02 0.01 0.01 0.01 0.00 0.00 0.00 0.00 0.00 0.00 0.00 0.00 0.01 0.01 0.01 0.01 0.01 0.01 0.01 0.01 0.01 0.01 0.01 0.01 0.01 0.01 0.01 0.02 0.02 0.02 0.02 0.02 0.02 0.02 0.02
0.04 0.03 0.03 0.02 0.01 0.01 0.01 0.01 0.00 0.00 0.00 0.00 0.00 0.00 0.00 0.01 0.01 0.01 0.01 0.01 0.01 0.01 0.01 0.01 0.01 0.01 0.01 0.01 0.01 0.01 0.02 0.02 0.03 0.03 0.03 0.03 0.03 0.02
0.01 0.01 0.01 0.00 0.00 0.00 0.01 0.01 0.01 0.01 0.01 0.01 0.01 0.02 0.02 0.02 0.02 0.01 0.01 0.01 0.01 0.01 0.01 0.01 0.01 0.01 0.01 0.01 0.01 0.01 0.02 0.02 0.02 0.02 0.02 0.02 0.01 0.01
0.01 0.00 0.01 0.01 0.01 0.01 0.01 0.02 0.02 0.02 0.02 0.02 0.02 0.02 0.03 0.03 0.02 0.01 0.02 0.01 0.01 0.02 0.02 0.02 0.02 0.02 0.02 0.02 0.02 0.02 0.02 0.02 0.03 0.02 0.02 0.02 0.01 0.01
0.01 0.01 0.01 0.02 0.02 0.02 0.02 0.02 0.03 0.03 0.03 0.03 0.03 0.03 0.03 0.03 0.02 0.02 0.03 0.03 0.03 0.03 0.03 0.02 0.02 0.02 0.03 0.03 0.01 0.01 0.01 0.01 0.02 0.02 0.02 0.02 0.02 0.02
0.02 0.02 0.02 0.02 0.02 0.03 0.03 0.04 0.04 0.04 0.04 0.03 0.04 0.05 0.06 0.06 0.06 0.05 0.05 0.04 0.02 0.02 0.02 0.01 0.01 0.02 0.02 0.02 0.02 0.01 0.01 0.01 0.01 0.01 0.02 0.02 0.02 0.02
0.02 0.02 0.02 0.02 0.02 0.02 0.03 0.03 0.03 0.03 0.03 0.04 0.05 0.07 0.09 0.09 0.08 0.06 0.05 0.03 0.03 0.03 0.02 0.02 0.02 0.02 0.02 0.03 0.02 0.02 0.01 0.02 0.01 0.02 0.02 0.02 0.02 0.02
0.02 0.02 0.01 0.01 0.01 0.01 0.01 0.02 0.03 0.03 0.04 0.05 0.06 0.06 0.06 0.06 0.05 0.04 0.03 0.03 0.03 0.03 0.04 0.04 0.03 0.03 0.03 0.04 0.03 0.02 0.02 0.02 0.02 0.03 0.03 0.03 0.03 0.03
0.03 0.02 0.02 0.02 0.02 0.03 0.03 0.04 0.04 0.04 0.05 0.05 0.05 0.04 0.03 0.03 0.02 0.02 0.03 0.04 0.03 0.04 0.04 0.03 0.02 0.03 0.03 0.03 0.03 0.03 0.02 0.02 0.03 0.03 0.04 0.04 0.04 0.04
0.03 0.03 0.03 0.03 0.02 0.02 0.02 0.03 0.03 0.03 0.03 0.03 0.03 0.03 0.02 0.02 0.02 0.02 0.03 0.03 0.02 0.02 0.02 0.02 0.03 0.03 0.04 0.03 0.03 0.03 0.03 0.03 0.03 0.03 0.03 0.04 0.04 0.04
0.04 0.03 0.03 0.03 0.04 0.04 0.04 0.03 0.02 0.02 0.03 0.03 0.04 0.03 0.03 0.03 0.03 0.02 0.02 0.02 0.02 0.02 0.02 0.02 0.03 0.03 0.03 0.03 0.03 0.03 0.04 0.03 0.02 0.02 0.02 0.02 0.03 0.04
0.03 0.03 0.03 0.03 0.03 0.03 0.03 0.04 0.04 0.04 0.04 0.04 0.03 0.02 0.03 0.03 0.03 0.02 0.02 0.02 0.02 0.02 0.02 0.02 0.03 0.04 0.04 0.04 0.03 0.03 0.04 0.04 0.03 0.02 0.02 0.03 0.04 0.05
0.05 0.04 0.03 0.03 0.03 0.03 0.03 0.03 0.03 0.04 0.04 0.05 0.04 0.04 0.05 0.04 0.04 0.04 0.04 0.04 0.04 0.04 0.03 0.03 0.04 0.05 0.05 0.05 0.04 0.04 0.04 0.04 0.04 0.05 0.05 0.06 0.06 0.06
0.03 0.05 0.05 0.04 0.04 0.03 0.02 0.02 0.03 0.04 0.04 0.05 0.05 0.05 0.05 0.05 0.06 0.05 0.05 0.05 0.05 0.05 0.04 0.04 0.04 0.05 0.06 0.06 0.05 0.05 0.04 0.04 0.05 0.05 0.05 0.06 0.06 0.06
MSLP
1015.38 1015.50 1015.63 1015.73 1015.76 1015.69 1015.51 1015.23 1014.87 1014.47 1014.07 1013.69 1013.35 1013.06 1012.82 1012.61 1012.42 1012.23 1012.04 1011.87 1011.72 1011.61 1011.56 1011.56 1011.61 1011.71 1011.83 1011.96 1012.08 1012.17 1012.23 1012.27 1012.28 1012.26 1012.23 1012.18 1012.12 1012.04
1015.92 1016.04 1016.15 1016.21 1016.20 1016.10 1015.90 1015.62 1015.27 1014.90 1014.53 1014.19 1013.88 1013.60 1013.34 1013.09 1012.83 1012.55 1012.27 1011.98 1011.72 1011.50 1011.34 1011.26 1011.25 1011.31 1011.41 1011.54 1011.67 1011.79 1011.89 1011.97 1012.01 1012.04 1012.05 1012.03 1011.98 1011.92
1016.49 1016.61 1016.70 1016.73 1016.69 1016.56 1016.34 1016.07 1015.75 1015.42 1015.10 1014.80 1014.53 1014.27 1014.00 1013.72 1013.39 1013.02 1012.63 1012.22 1011.84 1011.50 1011.23 1011.06 1010.97 1010.97 1011.03 1011.14 1011.27 1011.40 1011.52 1011.63 1011.72 1011.78 1011.83 1011.86 1011.86 1011.84
1017.06 1017.18 1017.25 1017.26 1017.19 1017.04 1016.83 1016.57 1016.28 1016.00 1015.73 1015.49 1015.26 1015.02 1014.75 1014.43 1014.05 1013.61 1013.12 1012.61 1012.12 1011.67 1011.30 1011.03 1010.86 1010.78 1010.78 1010.84 1010.93 1011.04 1011.15 1011.25 1011.35 1011.45 1011.53 1011.61 1011.67 1011.71
1017.60 1017.71 1017.77 1017.76 1017.68 1017.53 1017.33 1017.09 1016.84 1016.61 1016.39 1016.19 1016.00 1015.78 1015.52 1015.19 1014.78 1014.28 1013.73 1013.15 1012.57 1012.03 1011.58 1011.22 1010.96 1010.80 1010.71 1010.69 1010.71 1010.75 1010.80 1010.87 1010.94 1011.03 1011.13 1011.24 1011.35 1011.46
1018.08 1018.17 1018.22 1018.21 1018.13 1017.99 1017.81 1017.60 1017.38 1017.19 1017.01 1016.85 1016.68 1016.49 1016.23 1015.90 1015.48 1014.97 1014.38 1013.76 1013.14 1012.56 1012.04 1011.62 1011.28 1011.03 1010.85 1010.72 1010.63 1010.57 1010.52 1010.50 1010.51 1010.56 1010.64 1010.76 1010.90 1011.07
1018.46 1018.55 1018.60 1018.59 1018.52 1018.40 1018.23 1018.05 1017.86 1017.69 1017.53 1017.39 1017.24 1017.06 1016.82 1016.50 1016.09 1015.58 1015.01 1014.40 1013.78 1013.19 1012.65 1012.18 1011.78 1011.45 1011.17 1010.92 1010.71 1010.51 1010.34 1010.20 1010.11 1010.07 1010.10 1010.20 1010.36 1010.55
1018.76 1018.84 1018.89 1018.89 1018.84 1018.74 1018.59 1018.42 1018.25 1018.08 1017.93 1017.79 1017.64 1017.47 1017.23 1016.93 1016.54 1016.07 1015.54 1014.97 1014.39 1013.82 1013.29 1012.81 1012.37 1011.97 1011.61 1011.26 1010.91 1010.58 1010.27 1010.00 1009.79 1009.65 1009.60 1009.65 1009.79 1009.99
1018.98 1019.05 1019.11 1019.12 1019.09 1019.00 1018.87 1018.71 1018.53 1018.36 1018.20 1018.04 1017.88 1017.69 1017.46 1017.17 1016.82 1016.40 1015.92 1015.41 1014.89 1014.37 1013.87 1013.40 1012.95 1012.52 1012.09 1011.65 1011.20 1010.75 1010.32 1009.93 1009.60 1009.36 1009.22 1009.20 1009.28 1009.45
1019.13 1019.20 1019.26 1019.29 1019.27 1019.20 1019.07 1018.91 1018.72 1018.53 1018.34 1018.16 1017.97 1017.76 1017.53 1017.25 1016.92 1016.55 1016.13 1015.68 1015.23 1014.77 1014.32 1013.87 1013.43 1012.99 1012.52 1012.03 1011.52 1010.99 1010.47 1009.99 1009.57 1009.24 1009.02 1008.92 1008.94 1009.05
1019.24 1019.31 1019.37 1019.41 1019.40 1019.33 1019.21 1019.04 1018.84 1018.62 1018.40 1018.18 1017.96 1017.73 1017.48 1017.21 1016.90 1016.56 1016.19 1015.80 1015.39 1014.98 1014.57 1014.16 1013.74 1013.30 1012.84 1012.34 1011.80 1011.25 1010.70 1010.17 1009.70 1009.31 1009.03 1008.86 1008.80 1008.84
1019.32 1019.38 1019.44 1019.48 1019.47 1019.41 1019.28 1019.10 1018.89 1018.65 1018.40 1018.15 1017.91 1017.66 1017.40 1017.13 1016.83 1016.51 1016.16 1015.79 1015.42 1015.04 1014.65 1014.27 1013.87 1013.45 1013.01 1012.53 1012.02 1011.48 1010.95 1010.43 1009.95 1009.54 1009.22 1009.00 1008.87 1008.82
1019.38 1019.43 1019.48 1019.52 1019.50 1019.43 1019.30 1019.11 1018.89 1018.64 1018.38 1018.12 1017.86 1017.60 1017.34 1017.06 1016.77 1016.44 1016.10 1015.73 1015.36 1014.98 1014.60 1014.22 1013.83 1013.44 1013.03 1012.59 1012.13 1011.66 1011.18 1010.70 1010.26 1009.86 1009.52 1009.26 1009.07 1008.94
1019.41 1019.45 1019.49 1019.51 1019.49 1019.40 1019.26 1019.07 1018.84 1018.60 1018.34 1018.09 1017.84 1017.59 1017.33 1017.06 1016.76 1016.43 1016.07 1015.69 1015.28 1014.88 1014.47 1014.08 1013.69 1013.31 1012.93 1012.55 1012.15 1011.75 1011.34 1010.94 1010.54 1010.17 1009.84 1009.55 1009.30 1009.10
1019.42 1019.45 1019.47 1019.47 1019.42 1019.32 1019.17 1018.98 1018.76 1018.53 1018.29 1018.07 1017.85 1017.63 1017.39 1017.13 1016.84 1016.50 1016.11 1015.69 1015.25 1014.79 1014.34 1013.91 1013.50 1013.12 1012.76 1012.42 1012.08 1011.75 1011.42 1011.08 1010.74 1010.40 1010.07 1009.75 1009.45 1009.18
1019.42 1019.43 1019.43 1019.40 1019.32 1019.20 1019.03 1018.84 1018.63 1018.42 1018.23 1018.04 1017.87 1017.70 1017.50 1017.27 1016.98 1016.63 1016.23 1015.77 1015.27 1014.76 1014.25 1013.77 1013.32 1012.92 1012.56 1012.24 1011.95 1011.67 1011.39 1011.10 1010.79 1010.47 1010.13 1009.78 1009.42 1009.08
1019.41 1019.40 1019.37 1019.30 1019.19 1019.04 1018.85 1018.65 1018.46 1018.28 1018.13 1018.00 1017.88 1017.76 1017.61 1017.42 1017.15 1016.81 1016.39 1015.89 1015.35 1014.78 1014.22 1013.68 1013.18 1012.75 1012.38 1012.05 1011.77 1011.51 1011.26 1010.98 1010.68 1010.35 1009.98 1009.57 1009.15 1008.73
1019.39 1019.36 1019.29 1019.18 1019.03 1018.84 1018.63 1018.42 1018.23 1018.08 1017.97 1017.89 1017.83 1017.77 1017.68 1017.53 1017.29 1016.97 1016.54 1016.03 1015.45 1014.84 1014.23 1013.64 1013.10 1012.63 1012.23 1011.89 1011.59 1011.32 1011.05 1010.76 1010.43 1010.05 1009.62 1009.14 1008.64 1008.13
1019.35 1019.29 1019.19 1019.03 1018.83 1018.59 1018.36 1018.13 1017.95 1017.81 1017.73 1017.70 1017.69 1017.69 1017.65 1017.54 1017.35 1017.04 1016.63 1016.12 1015.53 1014.90 1014.26 1013.64 1013.07 1012.56 1012.13 1011.76 1011.43 1011.13 1010.82 1010.48 1010.09 1009.64 1009.12 1008.56 1007.97 1007.36
1019.25 1019.16 1019.01 1018.80 1018.55 1018.28 1018.01 1017.77 1017.58 1017.45 1017.40 1017.40 1017.44 1017.48 1017.48 1017.42 1017.27 1017.00 1016.61 1016.12 1015.54 1014.91 1014.26 1013.64 1013.05 1012.53 1012.07 1011.67 1011.31 1010.96 1010.60 1010.20 1009.73 1009.20 1008.59 1007.92 1007.23 1006.54
1019.02 1018.90 1018.70 1018.45 1018.16 1017.84 1017.55 1017.29 1017.10 1016.98 1016.94 1016.97 1017.04 1017.12 1017.17 1017.15 1017.03 1016.80 1016.45 1016.00 1015.45 1014.85 1014.22 1013.61 1013.03 1012.50 1012.04 1011.62 1011.23 1010.84 1010.43 1009.97 1009.43 1008.80 1008.11 1007.35 1006.56 1005.77
1018.60 1018.44 1018.21 1017.92 1017.59 1017.25 1016.94 1016.68 1016.49 1016.39 1016.37 1016.42 1016.52 1016.62 1016.71 1016.72 1016.65 1016.46 1016.16 1015.75 1015.25 1014.69 1014.11 1013.53 1012.98 1012.48 1012.02 1011.60 1011.20 1010.78 1010.33 1009.82 1009.22 1008.53 1007.76 1006.92 1006.05 1005.19
1017.93 1017.74 1017.48 1017.16 1016.82 1016.48 1016.17 1015.92 1015.74 1015.66 1015.67 1015.75 1015.87 1016.01 1016.12 1016.17 1016.14 1016.00 1015.75 1015.39 1014.95 1014.45 1013.92 1013.39 1012.89 1012.42 1011.99 1011.59 1011.19 1010.77 1010.31 1009.77 1009.14 1008.41 1007.60 1006.71 1005.78 1004.87
Thickness
5749 5747 5745 5743 5742 5739 5735 5730 5721 5711 5709 5711 5711 5711 5710 5708 5705 5703 5701 5699 5698 5696 5695 5694 5692 5691 5689 5688 5686 5684 5682 5680 5678 5676 5674 5672 5671 5668
5748 5746 5744 5742 5740 5738 5735 5730 5726 5718 5710 5710 5709 5709 5707 5705 5702 5700 5697 5695 5693 5691 5690 5688 5687 5685 5684 5682 5680 5678 5676 5674 5672 5670 5668 5666 5664 5662
5746 5745 5742 5741 5738 5735 5732 5728 5724 5720 5711 5708 5708 5706 5704 5702 5699 5696 5693 5690 5688 5686 5684 5683 5681 5679 5678 5676 5674 5672 5670 5668 5666 5664 5661 5659 5657 5655
5744 5742 5740 5739 5735 5732 5729 5725 5722 5719 5712 5705 5703 5701 5699 5698 5695 5692 5689 5686 5684 5681 5679 5678 5676 5673 5672 5670 5668 5666 5663 5661 5659 5657 5655 5653 5651 5649
5742 5740 5738 5735 5731 5729 5726 5723 5719 5716 5711 5705 5699 5697 5695 5693 5689 5687 5685 5682 5679 5677 5674 5672 5670 5668 5665 5663 5662 5660 5657 5655 5653 5650 5648 5646 5644 5642
5740 5738 5736 5733 5729 5727 5724 5720 5716 5711 5707 5702 5696 5693 5690 5688 5685 5681 5678 5676 5674 5672 5669 5667 5665 5662 5660 5658 5656 5654 5651 5649 5646 5644 5642 5639 5637 5634
5736 5734 5733 5731 5729 5725 5722 5717 5713 5707 5702 5696 5692 5688 5685 5682 5679 5677 5673 5670 5668 5667 5663 5661 5659 5656 5654 5652 5650 5648 5646 5643 5640 5638 5635 5633 5630 5627
5732 5730 5729 5727 5725 5722 5719 5716 5711 5705 5698 5693 5688 5684 5683 5680 5677 5674 5668 5664 5660 5661 5658 5655 5654 5651 5649 5647 5645 5643 5640 5637 5634 5632 5629 5627 5624 5621
5728 5725 5724 5722 5720 5717 5714 5711 5708 5705 5701 5695 5688 5685 5682 5679 5675 5670 5666 5663 5660 5659 5654 5650 5648 5646 5645 5643 5640 5638 5635 5632 5629 5626 5623 5621 5618 5615
5724 5722 5719 5716 5715 5712 5709 5705 5702 5700 5697 5694 5690 5686 5683 5679 5674 5671 5666 5661 5658 5656 5652 5646 5644 5642 5642 5639 5636 5633 5630 5627 5624 5621 5618 5616 5612 5609
5720 5718 5716 5712 5711 5707 5703 5699 5696 5694 5693 5690 5687 5683 5680 5676 5672 5665 5660 5655 5651 5650 5648 5643 5640 5637 5636 5634 5632 5629 5626 5623 5619 5616 5613 5610 5607 5603
5714 5713 5712 5709 5706 5703 5698 5693 5689 5687 5685 5683 5680 5677 5674 5671 5668 5663 5658 5652 5648 5645 5645 5640 5636 5632 5628 5629 5627 5624 5621 5617 5614 5611 5608 5604 5600 5596
5709 5707 5706 5704 5701 5697 5694 5690 5687 5683 5679 5676 5673 5670 5667 5664 5662 5659 5656 5652 5646 5643 5643 5638 5633 5628 5624 5622 5620 5619 5616 5612 5609 5605 5602 5599 5595 5591
5704 5703 5701 5698 5694 5691 5688 5686 5682 5678 5673 5669 5665 5662 5660 5657 5656 5654 5652 5649 5646 5643 5641 5636 5631 5626 5620 5615 5613 5612 5610 5607 5604 5600 5597 5594 5590 5586
5699 5697 5694 5691 5687 5684 5682 5679 5675 5670 5666 5661 5658 5656 5654 5652 5650 5648 5645 5642 5640 5638 5635 5632 5628 5624 5618 5613 5610 5606 5603 5602 5599 5596 5592 5589 5586 5582
5691 5688 5685 5683 5680 5677 5674 5670 5667 5664 5660 5657 5654 5651 5648 5645 5642 5640 5636 5634 5630 5630 5629 5626 5623 5619 5614 5611 5607 5603 5600 5597 5595 5592 5589 5585 5582 5578
5682 5678 5675 5672 5670 5667 5664 5662 5660 5656 5653 5650 5647 5643 5640 5638 5635 5633 5629 5626 5623 5622 5620 5619 5617 5614 5611 5607 5602 5600 5597 5594 5592 5588 5583 5580 5578 5575
5674 5670 5667 5664 5662 5660 5657 5654 5652 5649 5647 5644 5640 5637 5634 5631 5628 5626 5623 5620 5618 5616 5614 5611 5608 5605 5603 5602 5601 5597 5593 5591 5588 5584 5580 5576 5574 5572
5667 5664 5661 5658 5656 5653 5650 5648 5645 5644 5641 5637 5633 5630 5627 5624 5621 5619 5616 5614 5612 5611 5609 5606 5602 5598 5594 5594 5596 5594 5591 5587 5583 5579 5576 5574 5572 5571
5660 5658 5655 5652 5650 5647 5644 5641 5639 5637 5634 5631 5627 5624 5622 5619 5616 5613 5610 5608 5606 5604 5602 5600 5598 5595 5592 5591 5589 5589 5587 5583 5578 5575 5572 5570 5568 5566
5654 5651 5649 5646 5644 5642 5639 5635 5632 5630 5627 5624 5622 5619 5616 5613 5610 5607 5605 5603 5600 5598 5596 5595 5596 5594 5590 5585 5581 5581 5580 5579 5576 5572 5568 5564 5561 5558
5649 5646 5644 5641 5638 5636 5632 5629 5626 5623 5621 5618 5616 5613 5611 5608 5605 5602 5599 5596 5594 5593 5592 5591 5590 5586 5582 5578 5577 5576 5574 5572 5569 5567 5564 5562 5557 5554
5642 5640 5638 5635 5632 5629 5626 5623 5620 5617 5615 5612 5610 5607 5605 5602 5599 5596 5594 5591 5589 5587 5585 5583 5581 5578 5576 5573 5571 5569 5568 5565 5562 5559 5558 5557 5555 5553